Weather History for KJAC - September, 2013

Change the Weather History Date:

Tuesday, September 3, 2013

  Actual Average Record
Temperature  
Mean Temperature 66 °F -  
Max Temperature 78 °F 74 °F 84 °F (1978)
Min Temperature 55 °F 33 °F 25 °F (1981)
Cooling Degree Days 2    
Growing Degree Days 16 (Base 50)    
Moisture  
Dew Point 56 °F    
Average Humidity 85    
Maximum Humidity 100    
Minimum Humidity 34    
Precipitation  
Precipitation 0.02 in - - ()
Sea Level Pressure  
Sea Level Pressure 30.28 in    
Wind  
Wind Speed 3 mph (SSW)    
Max Wind Speed 16 mph    
Max Gust Speed 30 mph    
Visibility 8 miles    
Events Thunderstorm    
Averages and records for this station are not official NWS values.
T = Trace of Precipitation, MM = Missing Value Source: NWS Daily Summary

Daily Weather History Graph

Daily Weather History Graph

Search for Another Location

Airport or City:

Trip Planner

Search our weather history database for the weather conditions in past years. The results will help you decide how hot, cold, wet, or windy it might be!

Date:

Astronomy

Sep. 03, 2013 Rise Set
Actual Time 6:49 AM MDT 7:54 PM MDT
Civil Twilight 6:19 AM MDT 8:23 PM MDT
Nautical Twilight 5:44 AM MDT 8:58 PM MDT
Astronomical Twilight 5:07 AM MDT 9:35 PM MDT
Moon 5:04 AM MDT (9/3) 6:44 PM MDT (9/3)
Length of Visible Light 14h 03m
Length of Day
13h 05m
Waning Crescent, 3% of the Moon is Illuminated
Sep 3
Waning Crescent
Sep 5
New
Sep 12
First Quarter
Sep 19
Full
Sep 26
Last Quarter

Hourly Weather History & Observations

Time (MDT) Temp. Dew Point Humidity Pressure Visibility Wind Dir Wind Speed Gust Speed Precip Events Conditions
12:16 AM 57.2 °F 57.2 °F 100% 30.23 in 7.0 mi Calm Calm - N/A   Overcast
12:35 AM 57.2 °F 57.2 °F 100% 30.24 in 10.0 mi Calm Calm - N/A   Overcast
12:55 AM 57.2 °F 57.2 °F 100% 30.25 in 5.0 mi Calm Calm - N/A   Overcast
1:15 AM 57.2 °F 57.2 °F 100% 30.25 in 5.0 mi Calm Calm - N/A   Overcast
1:35 AM 57.2 °F 57.2 °F 100% 30.25 in 9.0 mi Calm Calm - N/A   Overcast
1:55 AM 57.2 °F 57.2 °F 100% 30.26 in 10.0 mi Calm Calm - N/A   Overcast
2:15 AM 57.2 °F 57.2 °F 100% 30.26 in 10.0 mi Calm Calm - N/A   Overcast
2:35 AM 57.2 °F 57.2 °F 100% 30.27 in 7.0 mi SSW 6.9 mph - N/A   Overcast
2:55 AM 57.2 °F 57.2 °F 100% 30.27 in 6.0 mi South 5.8 mph - N/A   Overcast
3:15 AM 57.2 °F 57.2 °F 100% 30.27 in 5.0 mi South 3.5 mph - N/A   Overcast
3:35 AM 57.2 °F 57.2 °F 100% 30.27 in 4.0 mi South 5.8 mph - N/A   Overcast
3:55 AM 57.2 °F 57.2 °F 100% 30.28 in 4.0 mi Calm Calm - N/A   Overcast
4:35 AM 57.2 °F 57.2 °F 100% 30.28 in 7.0 mi Calm Calm - N/A   Overcast
4:55 AM 57.2 °F 57.2 °F 100% 30.28 in 8.0 mi Calm Calm - N/A   Overcast
5:15 AM 57.2 °F 57.2 °F 100% 30.27 in 8.0 mi NE 3.5 mph - N/A   Overcast
5:35 AM 57.2 °F 57.2 °F 100% 30.27 in 9.0 mi Calm Calm - N/A   Overcast
5:55 AM 57.2 °F 57.2 °F 100% 30.28 in 5.0 mi Calm Calm - N/A   Mostly Cloudy
6:15 AM 55.4 °F 55.4 °F 100% 30.28 in 3.0 mi Calm Calm - N/A   Overcast
6:35 AM 55.4 °F 55.4 °F 100% 30.28 in 2.5 mi NNW 3.5 mph - N/A   Mostly Cloudy
6:51 AM 57.2 °F 57.2 °F 100% 30.29 in 4.0 mi Calm Calm - N/A   Mostly Cloudy
7:53 AM 57.2 °F 57.2 °F 100% 30.30 in 10.0 mi Calm Calm - N/A   Mostly Cloudy
9:54 AM 64.4 °F 57.2 °F 77% 30.32 in 10.0 mi South 3.5 mph - N/A   Overcast
9:55 AM 59.0 °F 57.2 °F 94% 30.32 in 5.0 mi SSE 3.5 mph - N/A   Overcast
10:51 AM 64.4 °F 57.2 °F 77% 30.33 in 10.0 mi Calm Calm - N/A   Mostly Cloudy
11:51 AM 66.2 °F 57.2 °F 73% 30.32 in 10.0 mi Calm Calm - N/A   Clear
1:53 PM 75.2 °F 53.6 °F 47% 30.29 in 10.0 mi SSW 6.9 mph - N/A   Partly Cloudy
2:55 PM 75.2 °F 51.8 °F 44% 30.26 in 10.0 mi South 8.1 mph - N/A   Partly Cloudy
3:52 PM 78.8 °F 50.0 °F 36% 30.25 in 10.0 mi Calm Calm - N/A   Scattered Clouds
4:54 PM 78.8 °F 48.2 °F 34% 30.22 in 10.0 mi South 5.8 mph - N/A   Clear
5:52 PM 75.2 °F 51.8 °F 44% 30.22 in 10.0 mi WSW 5.8 mph - N/A   Clear
6:51 PM 71.6 °F 55.4 °F 57% 30.23 in 10.0 mi SW 3.5 mph - N/A Thunderstorm Mostly Cloudy
7:13 PM 73.4 °F 55.4 °F 53% 30.23 in 10.0 mi Calm Calm - N/A Thunderstorm Thunderstorm
7:51 PM 64.4 °F 57.2 °F 77% 30.29 in 9.0 mi SW 16.1 mph 29.9 mph N/A Thunderstorm Thunderstorm
8:51 PM 60.8 °F 57.2 °F 88% 30.28 in 10.0 mi ENE 10.4 mph - N/A Thunderstorm Thunderstorm
8:55 PM 62.6 °F 57.2 °F 82% 30.29 in 10.0 mi East 5.8 mph - 0.02 in   Clear
9:15 PM 62.6 °F 55.4 °F 77% 30.30 in 10.0 mi ENE 4.6 mph - N/A   Clear
9:35 PM 60.8 °F 55.4 °F 82% 30.31 in 10.0 mi NW 8.1 mph - N/A   Mostly Cloudy
10:15 PM 60.8 °F 55.4 °F 82% 30.32 in 10.0 mi North 11.5 mph - N/A   Overcast
10:35 PM 60.8 °F 55.4 °F 82% 30.32 in 10.0 mi North 12.7 mph 19.6 mph N/A   Overcast
10:55 PM 60.8 °F 55.4 °F 82% 30.32 in 10.0 mi North 11.5 mph - N/A   Mostly Cloudy
11:15 PM 59.0 °F 55.4 °F 88% 30.33 in 10.0 mi North 13.8 mph - N/A   Overcast
11:55 PM 59.0 °F 55.4 °F 88% 30.33 in 10.0 mi NNW 9.2 mph - N/A   Mostly Cloudy